User: anonymous   Login
Location: Unspecified
(51.0950°N, 12.9690°E)
Time: 03:31:41
(UTC+00:00)
Language:

DX 1 - Orbit

View from above orbital plane
View from above orbital plane
View from above satellite
View from above satellite

Ground track
Ground track

The orbit data is extracted from the following two-line orbital elements,

1 40071U 14037C   24106.81450477  .00003463  00000-0  41835-3 0  9996
2 40071  98.3364  16.4764 0007278 335.1894  24.8968 14.84437200528388
Epoch (UTC): 15 April 2024 19:32:53
Eccentricity: 0.0007278
inclination: 98.3364°
perigee height: 610 km
apogee height: 620 km
right ascension of ascending node: 16.4764°
argument of perigee: 335.1894°
revolutions per day: 14.84437200
mean anomaly at epoch: 24.8968°
orbit number at epoch: 52838

The dashed part of the orbit path shows where the satellite is in the earth's shadow,  

DLR